Lapse_Rate
6.8 6.8 6.7 6.5 6.2 5.9 5.7 6.0 6.8 7.1 7.3 7.4 7.6 7.2 7.5 7.9 8.0 8.0 7.8 7.5 7.0 7.5 7.7 7.6 7.6 7.5 7.3 7.1 7.0 6.9 6.6 6.5 6.4 6.6 6.7 6.8 6.7 6.6 6.5 6.4 6.5 6.6 6.7 6.5 6.8 6.7 6.6 6.7 6.6
6.8 6.8 6.8 6.4 6.1 5.8 6.2 6.8 7.4 7.6 7.4 7.3 7.4 7.3 7.2 7.4 7.7 8.2 7.5 7.6 7.1 7.1 7.4 7.5 7.5 7.4 7.3 7.0 7.0 6.8 6.7 6.5 6.4 6.5 6.8 6.7 6.6 6.4 6.4 6.5 6.5 6.6 6.5 6.4 6.4 6.5 6.6 6.6 6.6
7.3 7.0 6.9 6.6 6.0 6.4 6.6 7.2 7.7 7.5 7.1 7.4 7.1 7.1 7.0 7.2 7.7 7.5 6.8 7.6 7.3 7.2 7.5 7.5 7.4 7.3 7.4 7.1 6.9 6.8 6.6 6.4 6.4 6.4 6.7 6.7 6.5 6.1 5.9 6.1 6.5 6.4 6.5 6.5 6.3 6.5 6.5 6.5 6.5
7.1 7.0 6.7 6.6 7.0 7.1 6.9 7.0 7.2 7.7 7.3 7.4 7.1 7.0 7.1 7.4 7.4 7.3 6.9 7.3 7.4 7.3 7.7 7.7 7.4 7.3 7.2 7.0 6.8 6.7 6.6 6.5 6.3 6.3 6.5 6.9 6.4 5.4 5.1 5.0 6.5 6.3 6.5 6.5 6.3 6.4 6.4 6.4 6.3
6.8 6.5 6.2 6.2 7.1 7.1 7.1 7.1 7.1 6.8 7.0 7.3 7.2 6.9 7.2 7.3 6.9 6.9 7.1 7.3 7.3 7.0 7.7 7.6 7.6 7.2 7.1 6.9 6.7 6.6 6.4 6.5 6.2 6.2 6.4 6.4 5.7 5.2 4.9 5.6 6.3 6.4 6.6 6.5 6.3 6.3 6.4 6.3 6.4
6.8 6.4 5.7 5.9 6.2 6.7 6.9 7.0 6.8 6.7 6.2 6.6 7.3 6.8 6.9 7.3 6.6 6.6 7.1 7.2 7.0 6.3 7.5 7.8 7.6 7.4 7.0 6.9 6.7 6.6 6.4 6.4 6.2 6.2 6.1 6.0 5.3 5.3 5.8 6.0 6.2 6.5 6.5 6.4 6.3 6.3 6.3 6.3 6.2
6.7 5.9 6.3 6.4 6.7 6.2 6.2 6.4 6.8 6.3 6.0 5.8 6.8 6.6 6.8 6.9 6.5 6.3 7.0 7.2 6.8 6.6 7.3 7.5 7.6 7.4 7.0 7.0 6.8 6.5 6.4 6.3 6.1 6.0 5.8 5.5 5.1 5.5 5.9 6.0 6.1 6.4 6.4 6.4 6.3 6.3 6.3 6.3 6.0
6.7 6.4 6.4 6.3 5.7 5.9 5.8 6.3 6.3 6.3 6.0 5.8 6.4 6.7 7.0 6.6 6.3 5.7 6.5 7.0 6.5 6.0 7.1 7.3 7.4 7.3 7.1 7.1 6.8 6.5 6.4 6.3 6.2 5.9 5.8 5.5 5.3 5.5 5.8 6.0 6.0 6.2 6.4 6.4 6.4 6.3 6.3 6.2 6.1
6.6 6.4 6.1 5.6 5.7 6.0 6.1 6.2 6.2 6.1 5.8 5.6 6.1 6.6 6.1 6.3 6.3 6.2 6.3 7.0 6.9 6.3 6.6 6.7 6.8 7.1 7.1 7.0 6.8 6.6 6.2 6.2 6.1 6.0 5.7 5.5 5.3 5.6 5.7 5.9 6.0 6.1 6.3 6.5 6.6 6.5 6.4 6.2 6.1
6.2 5.8 5.1 4.8 5.0 4.9 5.2 5.6 5.3 5.7 5.3 5.4 6.1 6.5 5.6 5.4 5.8 5.5 5.8 6.9 6.7 6.2 6.7 6.7 6.4 6.8 7.0 7.0 6.6 6.4 6.1 6.2 6.1 6.0 5.7 5.5 5.6 5.7 5.8 5.9 6.1 6.2 6.1 6.4 6.5 6.4 6.3 6.1 6.0
5.7 5.4 5.2 5.1 4.7 4.3 3.6 3.8 3.9 3.3 5.0 4.9 5.8 6.8 5.8 5.1 5.3 5.2 5.4 6.5 6.7 6.2 6.8 6.8 6.4 6.9 7.0 6.9 6.6 6.3 6.1 6.0 6.2 6.0 5.8 5.6 5.6 5.9 6.1 6.0 6.0 6.3 6.1 6.2 6.2 6.3 6.1 6.1 6.0
5.5 4.8 4.4 4.3 3.8 3.3 2.7 1.8 1.7 2.4 2.4 4.0 5.0 5.1 6.0 5.2 4.5 4.8 5.0 6.0 6.3 5.8 6.4 6.8 6.6 6.6 6.5 5.9 6.6 6.5 6.3 6.1 6.1 6.1 6.0 5.6 5.7 6.0 6.2 6.2 6.0 6.3 6.3 6.2 6.1 6.3 6.1 6.2 6.2
4.7 4.0 3.7 3.6 2.7 1.7 1.4 1.7 1.9 2.5 2.9 3.1 5.1 5.9 5.8 4.4 4.1 4.6 5.0 5.9 5.9 5.3 6.1 6.8 6.6 6.8 6.6 4.9 5.7 6.2 6.4 6.2 6.3 6.0 6.1 6.1 6.0 6.1 6.0 6.2 6.2 6.2 6.3 6.2 6.1 6.3 6.3 6.2 6.2
3.7 3.2 2.5 2.0 1.8 1.5 1.8 2.4 2.8 2.9 3.4 3.7 3.8 5.1 5.2 4.6 3.8 4.3 4.8 5.9 5.6 5.5 5.6 6.6 6.7 6.7 6.4 5.5 5.0 6.0 6.1 6.2 6.2 5.9 6.1 6.4 6.2 6.3 6.0 6.2 6.2 6.2 6.3 6.3 6.1 6.4 6.4 6.2 6.4
3.0 2.5 2.1 2.2 1.7 1.7 2.4 3.1 3.1 3.4 4.0 4.0 4.2 4.1 4.8 5.2 4.3 4.2 4.7 5.7 5.7 5.7 6.2 5.8 6.3 6.3 6.1 5.8 5.0 5.6 6.3 5.9 6.1 6.2 6.1 6.6 6.4 6.3 6.2 6.3 6.2 6.3 6.3 6.3 6.2 6.3 6.3 6.3 6.5
2.9 2.2 1.2 1.7 1.5 2.7 3.1 3.6 4.0 3.9 4.8 4.8 4.8 4.5 4.2 4.8 4.6 4.5 4.9 5.4 5.7 5.7 5.7 5.7 5.9 6.3 6.0 5.9 5.1 5.5 5.6 5.9 6.0 6.1 6.4 6.6 6.3 6.3 6.3 6.2 6.2 6.2 6.3 6.3 6.2 6.2 6.3 6.4 6.6
1.9 0.9 1.0 1.4 2.2 3.1 4.0 4.5 4.9 4.8 5.6 5.8 5.5 5.1 4.6 4.5 4.0 3.9 4.3 5.0 5.9 5.6 5.7 5.6 6.2 5.5 5.9 6.2 5.6 4.7 5.6 5.6 6.0 6.2 6.4 6.7 6.3 6.3 6.4 6.2 6.4 6.2 6.2 6.4 6.4 6.3 6.3 6.6 6.8
1.0 0.9 1.1 1.9 2.6 3.2 4.3 5.1 5.2 5.2 5.8 6.0 6.0 5.4 5.1 4.6 4.0 3.3 3.6 4.6 5.2 5.6 5.5 5.7 5.7 5.5 6.1 5.9 5.3 5.1 4.0 6.0 5.8 6.2 6.4 6.5 6.4 6.4 6.3 6.4 6.2 6.3 6.3 6.5 6.5 6.4 6.3 6.7 6.8
1.4 1.1 1.6 2.5 2.7 3.2 4.4 5.2 5.8 5.5 6.2 6.0 6.2 5.7 5.4 4.9 4.3 3.4 3.3 4.0 4.6 5.3 5.3 5.3 5.4 5.8 5.6 5.9 6.0 5.4 5.0 5.3 5.5 5.8 6.1 6.7 6.4 6.3 6.4 6.5 6.3 6.3 6.3 6.5 6.5 6.5 6.4 6.8 6.8
1.6 1.5 1.8 2.9 3.2 3.4 5.0 5.2 5.9 6.2 6.4 6.7 6.1 5.9 5.8 5.1 4.6 3.7 3.3 3.5 4.1 5.1 5.1 4.9 5.0 5.6 5.1 5.3 6.0 5.8 4.7 5.2 6.1 6.1 6.0 6.6 6.7 6.5 6.6 6.2 6.7 6.3 6.4 6.5 6.5 6.7 6.6 6.9 6.9
2.3 1.8 2.0 2.2 3.4 4.4 5.2 5.4 5.9 6.5 7.0 6.8 6.4 6.5 6.1 5.3 4.9 4.3 3.4 3.6 3.8 4.8 5.0 4.9 5.0 5.2 5.2 5.1 5.7 5.8 4.8 5.4 5.8 6.1 5.8 6.1 6.4 6.7 6.7 6.6 6.5 6.3 6.3 6.7 6.8 6.8 6.8 7.0 7.1
2.2 2.2 2.6 2.8 2.8 4.3 5.5 6.0 6.3 7.1 7.0 6.8 6.9 6.9 6.6 5.9 5.5 4.6 3.7 3.4 3.7 4.3 4.9 4.7 5.0 5.3 5.2 5.6 5.7 5.8 5.5 5.2 5.6 5.9 5.9 6.1 6.3 6.3 6.3 6.7 6.5 6.4 6.4 6.4 6.8 6.9 7.0 6.8 6.8
2.3 2.7 3.3 2.8 3.2 4.3 5.8 6.7 5.9 7.0 7.1 7.2 6.9 6.6 6.3 6.0 6.0 4.8 4.1 3.5 3.5 4.1 5.0 4.7 4.9 5.3 5.2 5.6 5.6 5.6 5.7 4.7 5.4 5.9 6.3 6.4 6.3 6.1 6.2 6.4 6.2 6.3 6.4 6.4 6.6 6.8 6.8 6.6 6.7
1.9 3.5 2.9 3.0 3.4 4.6 6.2 6.8 5.9 6.6 6.7 6.8 6.6 6.1 6.1 6.3 5.8 4.9 4.1 3.6 3.4 3.9 4.7 4.8 4.8 5.5 5.2 5.3 5.2 5.5 5.7 5.3 4.6 6.1 6.1 6.3 6.1 5.9 5.8 6.1 6.0 6.2 6.3 6.5 6.7 6.7 6.7 6.6 6.8
2.3 2.6 1.2 1.4 2.4 3.7 5.9 6.1 6.6 6.7 6.6 6.5 6.4 6.2 5.7 5.9 5.5 4.9 4.4 3.8 3.5 3.7 4.1 4.6 4.5 5.6 5.3 5.2 5.5 5.6 5.9 5.4 5.2 5.1 5.8 6.1 6.0 5.7 5.7 6.0 5.9 5.9 6.3 6.4 6.6 6.7 6.9 6.8 6.9
1.7 1.5 1.7 0.8 1.5 3.3 4.9 5.5 6.3 6.0 6.0 6.2 6.4 6.2 5.9 5.6 5.2 4.6 4.4 4.0 3.9 3.8 4.0 4.1 4.3 5.3 5.6 5.2 5.0 5.2 5.7 5.3 5.1 4.8 5.5 6.0 6.4 5.8 5.7 6.0 6.1 6.1 6.4 6.5 6.4 6.7 6.7 6.8 6.8
2.1 1.7 1.5 1.0 2.3 2.3 4.9 5.5 5.8 5.9 6.0 5.9 5.8 6.0 5.8 5.2 5.1 4.6 4.3 3.9 3.9 4.1 3.9 4.1 4.4 5.1 5.6 5.4 5.2 5.5 5.2 5.0 5.2 5.3 5.5 5.5 5.9 6.0 6.0 6.0 5.9 5.9 6.0 6.2 6.4 6.5 6.6 6.8 6.8
1.9 1.8 1.8 1.9 0.5 -0.0 3.6 4.8 5.4 5.8 5.5 5.1 5.1 5.5 5.5 4.9 4.7 4.4 4.4 4.0 3.8 4.1 4.4 4.4 4.5 5.0 5.8 5.7 5.3 5.7 6.3 5.4 5.0 4.9 5.2 5.3 5.7 6.1 6.3 5.9 5.9 5.8 5.8 6.0 6.2 6.2 6.4 6.5 6.7
1.8 1.5 1.7 1.9 2.3 0.7 0.8 3.6 4.9 4.7 4.6 4.8 4.7 4.9 5.0 4.7 4.4 4.3 4.3 4.2 4.0 4.0 4.1 4.6 4.8 5.0 5.7 5.8 5.6 5.3 6.2 6.2 5.3 5.2 5.2 5.1 5.0 5.6 5.9 6.2 5.8 5.7 5.6 5.9 6.1 6.2 6.3 6.6 6.7
2.2 2.1 1.9 1.7 2.0 2.4 2.7 2.7 4.5 4.5 4.3 4.3 4.3 4.4 4.5 4.5 4.1 4.0 4.0 4.2 4.2 4.2 4.1 4.3 4.9 5.2 5.6 5.9 5.6 5.5 6.1 5.9 6.1 5.3 4.9 4.7 5.0 5.0 5.0 5.8 6.0 5.6 5.6 5.8 6.2 6.1 6.2 6.3 6.5
Wind_Speed
23 18 8 2 0 3 5 7 11 12 12 1 4 5 8 10 7 1 2 8 10 19 21 22 23 25 26 26 25 24 22 21 20 22 22 18 18 19 19 18 19 20 23 20 22 21 19 19 19
16 12 2 3 2 4 6 11 13 11 10 5 3 4 9 10 8 5 5 4 10 19 20 21 24 24 25 26 26 24 23 22 20 21 21 19 18 18 19 20 21 24 22 22 21 21 18 17 16
14 9 2 3 4 6 4 7 12 10 5 3 6 8 5 7 6 5 6 4 2 17 21 19 22 23 25 26 24 25 24 23 21 20 21 20 18 17 22 24 23 25 22 21 21 20 17 15 15
5 3 3 2 12 8 9 9 9 9 10 9 6 10 1 7 4 5 7 7 5 16 20 24 23 23 25 26 25 25 24 24 21 20 20 23 20 21 24 22 24 24 22 20 20 19 17 15 12
3 3 3 5 10 9 14 13 13 7 2 8 7 6 7 9 17 17 11 6 6 11 16 24 25 24 24 25 26 26 25 24 23 21 21 21 22 25 24 24 24 23 22 21 20 19 17 13 13
3 2 3 7 9 9 9 21 15 5 6 8 7 3 3 12 18 13 16 11 8 9 14 22 26 24 25 26 27 26 26 25 24 21 21 21 26 25 24 24 24 23 21 22 22 20 18 14 11
2 3 6 14 16 11 6 22 15 11 13 4 13 14 3 22 15 13 19 9 10 10 13 12 22 23 25 26 28 27 26 25 24 22 23 22 24 24 23 24 23 22 20 22 23 21 19 15 11
3 3 4 5 8 3 9 15 18 18 9 22 7 6 6 15 19 13 14 19 20 4 10 13 14 20 21 21 25 25 26 24 23 23 23 24 23 23 21 23 22 21 19 24 24 22 19 14 13
6 2 5 7 9 11 16 15 13 18 12 21 12 13 18 20 21 12 16 17 18 17 18 8 11 14 17 19 19 23 25 25 24 26 27 25 18 19 21 20 21 21 23 25 26 23 20 18 17
4 2 2 9 10 13 16 16 18 17 21 20 22 19 25 23 19 16 12 14 18 19 19 17 19 12 13 16 19 20 20 21 21 23 26 21 20 20 17 21 22 26 25 25 24 25 23 17 15
6 2 13 10 14 15 17 18 17 16 18 17 24 26 22 22 18 15 15 14 15 16 13 17 17 16 11 12 12 14 16 16 19 25 25 21 19 16 18 17 17 21 23 18 19 19 12 12 12
3 4 10 12 14 15 14 15 14 14 14 19 21 19 16 16 16 16 16 17 17 18 17 17 18 16 17 7 12 13 11 12 10 22 27 19 11 13 15 13 16 16 16 14 14 12 14 11 15
9 10 11 12 12 11 12 12 15 13 17 19 21 17 15 13 17 15 16 17 19 19 18 19 17 17 14 16 12 14 14 13 15 21 24 22 13 11 15 13 15 14 16 15 8 10 10 11 13
8 10 12 8 11 12 13 13 13 12 15 17 19 19 17 18 19 16 17 18 19 19 20 17 20 17 16 13 17 14 13 13 15 19 20 24 20 12 11 10 9 12 16 15 14 7 6 5 11
9 10 9 8 12 12 8 10 6 10 13 14 17 18 18 17 17 16 16 18 19 17 20 20 18 19 17 15 14 11 14 12 13 13 24 26 23 19 14 11 9 10 19 18 14 10 9 4 9
7 3 12 13 13 14 5 12 7 9 11 14 16 17 16 17 19 18 17 17 18 19 19 19 16 18 17 15 14 11 9 13 12 13 21 26 24 24 13 11 10 12 14 12 6 5 5 5 6
6 10 18 12 16 15 13 10 8 8 10 11 14 14 14 15 16 18 16 18 18 18 19 19 20 18 19 16 14 12 11 14 13 13 15 24 23 24 15 11 9 14 8 6 8 4 5 5 6
14 14 10 17 14 16 13 11 4 5 10 10 11 12 13 14 15 17 17 18 16 17 17 18 14 16 20 13 10 9 13 15 14 13 14 23 20 23 16 11 10 13 7 7 7 6 5 7 8
7 11 16 15 17 16 15 12 5 3 9 8 9 12 13 15 15 13 15 15 15 15 16 17 19 20 13 11 10 4 9 16 14 13 19 19 20 21 13 11 12 9 9 10 11 7 9 9 8
13 15 11 12 17 12 8 6 5 5 2 2 7 9 13 15 15 15 14 14 14 16 17 17 17 16 14 9 8 4 6 5 13 13 16 18 18 21 14 14 14 12 10 11 11 11 7 9 9
16 6 16 14 17 13 7 6 5 3 1 6 5 6 10 13 16 15 15 14 14 16 18 17 17 18 14 16 8 6 10 6 11 14 14 16 17 17 16 16 15 13 11 11 11 11 11 10 6
11 14 16 14 8 3 3 2 1 2 3 9 7 10 12 13 14 15 15 15 14 14 15 16 16 17 15 15 10 10 9 4 7 11 13 15 18 17 16 17 16 15 11 12 10 10 9 12 12
9 21 15 9 4 5 2 1 2 4 5 13 10 11 11 12 13 16 15 15 14 14 14 15 16 15 17 16 15 8 8 8 8 10 15 16 16 19 18 16 17 15 11 12 13 12 12 10 9
16 13 6 5 2 2 3 1 1 2 5 9 10 11 11 10 13 14 15 15 14 14 14 15 17 16 16 16 12 12 12 13 7 11 15 14 14 13 17 18 17 14 13 14 12 13 14 13 10
11 9 4 5 3 3 7 6 3 3 4 3 7 11 9 8 9 12 15 15 15 16 16 15 17 17 16 16 16 15 12 11 12 12 13 17 14 14 16 18 17 13 13 15 15 14 13 12 10
6 4 3 4 4 7 11 2 4 5 2 3 4 7 8 8 7 9 12 13 14 16 16 16 17 16 16 14 13 13 14 7 10 10 8 15 15 15 20 19 19 18 15 16 15 12 11 12 9
5 5 2 2 6 2 3 5 3 2 3 4 6 8 8 8 8 8 10 11 13 14 15 15 16 17 15 15 12 12 13 10 11 15 7 8 19 16 20 20 19 17 16 17 16 12 13 13 11
4 4 4 2 5 6 6 5 2 5 7 6 8 8 7 6 8 7 8 10 11 12 13 15 15 15 16 15 13 11 14 13 11 10 11 15 12 19 19 20 19 18 17 17 16 13 14 13 10
1 0 1 2 1 2 4 6 6 4 5 7 8 6 7 6 8 6 6 6 8 11 13 14 16 16 16 15 13 14 14 14 11 9 10 11 16 14 20 20 20 19 18 18 17 15 15 15 14
2 1 3 3 5 3 4 6 4 4 6 4 8 6 5 5 7 4 5 5 7 10 12 13 15 16 15 15 14 13 13 14 12 11 11 7 12 6 17 21 20 20 19 19 18 17 16 17 16
Wind_Direction
324 310 293 317 287 219 231 233 240 264 289 233 265 324 303 267 270 239 240 93 111 136 148 155 163 162 156 154 155 154 151 153 154 146 148 149 146 144 147 137 121 111 107 103 103 101 101 95 101
306 300 236 272 237 241 254 221 238 243 237 138 148 312 292 285 308 88 55 57 118 137 147 161 164 165 159 158 156 158 155 155 156 152 148 151 152 150 151 146 128 115 108 106 102 105 105 98 101
312 270 273 188 207 228 274 312 307 336 282 330 311 279 244 277 350 55 9 343 275 137 147 161 164 168 165 161 162 161 158 157 158 157 154 151 152 152 153 141 128 115 113 110 108 108 105 101 96
306 194 258 258 238 254 270 298 309 329 330 337 334 305 334 0 45 47 5 340 263 143 151 153 165 167 169 167 166 162 160 157 159 160 159 150 150 142 134 127 120 117 116 117 115 114 111 109 106
247 265 253 231 252 257 261 257 255 243 285 310 318 268 276 46 20 6 348 343 298 149 143 155 163 168 166 166 167 161 160 158 161 162 157 151 147 138 129 125 122 121 121 124 124 122 117 117 101
291 270 270 258 266 288 315 358 339 306 217 285 310 298 276 49 18 358 331 322 311 138 143 159 164 174 168 165 163 163 162 161 162 163 163 153 146 137 135 131 129 128 129 129 128 127 123 114 105
275 307 263 280 284 291 357 343 17 344 323 286 315 289 240 32 1 2 345 313 299 138 150 166 168 173 172 167 164 164 163 163 163 161 156 150 144 136 138 133 135 135 135 136 131 130 129 122 127
334 312 285 274 310 310 29 357 355 6 324 322 328 328 28 9 350 14 4 9 2 309 173 170 174 173 180 174 166 163 163 162 162 157 153 144 138 136 136 136 141 138 131 137 132 130 129 123 118
327 295 273 2 350 322 353 347 340 330 319 328 315 334 7 2 344 13 11 3 2 0 358 307 185 185 180 173 169 162 160 159 158 152 146 142 139 135 136 141 142 134 128 121 130 128 123 120 122
352 297 8 11 337 336 331 330 328 324 321 315 311 325 350 341 341 346 28 6 359 355 347 340 343 213 185 171 167 169 165 163 159 150 150 153 152 149 135 137 131 125 124 123 121 123 124 120 121
342 286 340 345 343 339 324 315 315 306 300 308 311 324 345 335 328 346 3 10 353 347 345 349 344 323 237 184 171 173 170 168 161 156 158 158 153 146 131 132 128 129 126 129 127 127 129 135 115
306 333 352 328 320 313 306 302 307 299 313 344 323 313 312 318 321 5 358 354 349 344 344 342 337 330 320 209 177 178 173 169 166 166 167 161 151 152 142 146 147 139 139 139 149 150 147 137 119
45 343 317 304 295 290 305 321 299 311 357 331 318 317 310 333 3 353 359 348 344 340 341 338 333 327 325 326 213 180 177 173 170 170 174 164 154 154 150 156 155 150 150 144 146 151 152 148 140
316 293 300 301 320 343 318 309 313 359 347 341 341 340 348 353 352 354 353 346 341 336 332 333 335 330 331 322 322 184 175 175 171 172 174 160 158 154 156 160 161 156 156 149 150 173 147 154 144
279 313 347 340 339 318 326 307 24 5 352 349 352 344 344 357 350 352 351 345 337 333 331 335 334 330 332 320 314 286 175 178 176 171 172 161 161 158 157 158 164 169 160 158 167 163 138 127 122
12 40 338 334 327 309 350 298 35 11 359 352 355 347 347 353 344 350 344 345 335 331 331 328 337 329 325 322 296 277 223 178 179 170 168 164 162 162 157 156 162 155 143 139 135 134 130 135 122
39 318 323 320 312 342 316 292 82 33 16 360 350 348 343 347 346 340 345 339 335 331 330 336 334 332 324 313 307 288 323 186 178 170 167 165 164 163 159 163 145 145 143 136 144 134 132 113 125
314 320 302 305 339 316 297 287 98 50 35 2 354 348 342 346 343 338 345 340 337 332 334 332 330 329 323 323 293 308 295 183 171 167 166 166 164 163 163 153 146 145 141 143 137 135 132 128 136
310 295 297 322 317 327 300 298 313 66 41 2 360 347 341 343 337 341 343 341 335 337 339 337 334 335 336 335 344 313 298 155 165 161 164 169 163 168 162 152 149 151 152 154 150 141 146 134 140
312 305 328 300 322 311 300 301 82 66 68 12 3 342 342 341 338 338 342 344 343 338 340 336 336 335 332 332 326 297 300 267 164 166 166 170 166 168 159 158 153 158 156 156 159 152 147 145 157
325 18 336 305 316 301 259 238 178 155 191 33 359 339 339 343 335 334 345 344 341 343 340 337 336 332 331 338 325 340 280 282 195 170 174 170 168 165 161 158 152 163 164 164 163 158 154 152 140
312 2 319 299 322 315 75 292 4 192 30 5 344 347 341 338 336 338 342 342 341 340 337 339 337 335 337 344 344 348 306 311 277 160 176 165 170 165 164 160 158 165 164 167 163 157 155 156 161
279 320 292 277 281 309 329 252 54 20 335 335 337 340 336 335 338 336 342 338 337 342 343 342 339 342 340 341 346 352 307 304 331 173 176 165 171 170 162 164 161 166 165 169 162 155 161 165 172
333 318 269 241 175 236 343 321 341 351 281 313 337 333 330 333 335 335 338 340 338 341 346 348 345 344 340 337 332 347 347 323 305 288 172 174 173 172 164 169 163 169 168 167 165 161 163 172 181
357 338 348 359 5 258 347 329 197 250 299 278 320 325 322 327 327 335 341 344 340 344 347 350 347 345 340 342 339 346 341 330 303 309 177 184 169 174 166 166 167 170 170 169 168 168 167 172 177
325 76 89 277 318 302 314 273 262 222 221 326 302 297 321 321 319 333 339 340 340 342 344 346 349 343 341 342 340 339 325 343 320 320 333 181 172 171 169 168 170 173 172 171 170 170 168 170 169
320 42 211 277 231 269 258 311 353 311 333 328 321 321 317 321 326 330 338 340 341 342 343 345 346 341 344 337 339 346 326 356 327 306 316 284 171 171 170 168 170 174 173 174 171 171 173 167 170
98 176 13 314 347 306 306 299 227 313 314 314 316 309 313 317 325 327 337 340 340 341 341 344 347 347 339 339 343 343 332 348 320 323 343 345 205 166 171 170 170 173 177 175 172 172 176 170 170
204 93 6 120 134 234 307 274 204 217 264 295 296 305 308 322 313 317 325 332 336 338 347 346 347 350 343 341 343 350 345 338 332 347 335 354 293 191 174 175 174 176 177 177 175 173 174 174 171
67 189 131 124 286 234 184 273 186 201 251 271 298 306 311 299 298 306 317 327 339 341 349 351 348 347 343 337 344 355 347 341 340 347 343 358 319 271 177 179 177 179 181 178 176 173 176 176 177